Paducah, KY

8:16 AM CDT on May 30, 2017 (GMT -0500)
Barkley Regional

Weather History for KPAH - May, 2013

Change the Weather History Date:

Tuesday, May 21, 2013

  Actual Average Record
Temperature  
Mean Temperature 72 °F 68 °F  
Max Temperature 78 °F 79 °F 94 °F (1987)
Min Temperature 65 °F 58 °F 41 °F (1954)
Degree Days  
Heating Degree Days 0 1  
Month to date heating degree days 75 55  
Since 1 July heating degree days 4201 4119  
Cooling Degree Days 7 5  
Month to date cooling degree days 82 70  
Year to date cooling degree days 114 112  
Growing Degree Days 21 (Base 50)    
Moisture  
Dew Point 65 °F    
Average Humidity 79    
Maximum Humidity 93    
Minimum Humidity 64    
Precipitation  
Precipitation 1.25 in 0.14 in 1.25 in (2013)
Month to date precipitation 3.46 3.49  
Year to date precipitation 24.60 19.77  
Snow  
Snow 0.00 in 0.00 in 0.00 in (2002)
Month to date snowfall 0.0 0.0  
Since 1 July snowfall 6.8 9.1  
Snow Depth 0.00 in    
Sea Level Pressure  
Sea Level Pressure 29.85 in    
Wind  
Wind Speed 9 mph (SSW)    
Max Wind Speed 29 mph    
Max Gust Speed 38 mph    
Visibility 8 miles    
Events Rain , Thunderstorm    
T = Trace of Precipitation, MM = Missing Value Source: NWS Daily Summary

Daily Weather History Graph

Daily Weather History Graph

Search for Another Location

Airport or City:

Trip Planner

Search our weather history database for the weather conditions in past years. The results will help you decide how hot, cold, wet, or windy it might be!

Date:

Astronomy

May. 21, 2013 Rise Set
Actual Time 5:42 AM CDT 8:01 PM CDT
Civil Twilight 5:12 AM CDT 8:31 PM CDT
Nautical Twilight 4:36 AM CDT 9:07 PM CDT
Astronomical Twilight 3:56 AM CDT 9:47 PM CDT
Moon 4:19 PM CDT (5/21) 3:04 AM CDT (5/21)
Length of Visible Light 15h 18m
Length of Day
14h 19m
Waxing Gibbous, 84% of the Moon is Illuminated
May 21
Waxing Gibbous
May 24
Full
May 31
Last Quarter
Jun 8
New
Jun 16
First Quarter

Hourly Weather History & Observations

Time (CDT) Temp. Dew Point Humidity Pressure Visibility Wind Dir Wind Speed Gust Speed Precip Events Conditions
12:53 AM 77.0 °F 69.1 °F 76% 29.85 in 10.0 mi South 8.1 mph - N/A   Clear
1:53 AM 77.0 °F 69.1 °F 76% 29.85 in 10.0 mi South 8.1 mph 18.4 mph N/A   Partly Cloudy
2:53 AM 75.9 °F 69.1 °F 79% 29.80 in 10.0 mi South 17.3 mph 23.0 mph N/A   Partly Cloudy
3:17 AM 73.4 °F 66.2 °F 78% 29.91 in 4.0 mi West 26.5 mph 38.0 mph 0.00 in Rain , Thunderstorm Rain
3:20 AM 68.0 °F 64.4 °F 88% 29.92 in 1.5 mi West 23.0 mph 38.0 mph 0.03 in Rain , Thunderstorm Heavy Rain
3:26 AM 66.2 °F 64.4 °F 94% 29.91 in 1.0 mi West 18.4 mph 38.0 mph 0.22 in Rain , Thunderstorm Heavy Rain
3:31 AM 66.2 °F 64.4 °F 94% 29.90 in 2.5 mi West 17.3 mph 27.6 mph 0.24 in Rain , Thunderstorm Thunderstorms and Rain
3:38 AM 66.2 °F 64.4 °F 94% 29.90 in 7.0 mi West 10.4 mph 23.0 mph 0.25 in Rain , Thunderstorm Light Thunderstorms and Rain
3:53 AM 66.0 °F 64.0 °F 93% 29.89 in 10.0 mi West 10.4 mph - 0.25 in   Overcast
4:07 AM 66.2 °F 64.4 °F 94% 29.90 in 10.0 mi WSW 6.9 mph - 0.00 in Rain , Thunderstorm Light Rain
4:20 AM 66.2 °F 64.4 °F 94% 29.89 in 9.0 mi SW 3.5 mph - 0.00 in Rain , Thunderstorm Light Rain
4:46 AM 64.4 °F 64.4 °F 100% 29.88 in 6.0 mi Calm Calm - 0.03 in Rain Light Rain
4:53 AM 64.9 °F 64.0 °F 97% 29.85 in 7.0 mi ESE 4.6 mph - 0.04 in Rain Rain
5:53 AM 66.0 °F 64.0 °F 93% 29.88 in 10.0 mi SSE 17.3 mph 24.2 mph 0.02 in   Mostly Cloudy
6:53 AM 66.0 °F 64.0 °F 93% 29.90 in 10.0 mi South 6.9 mph - 0.00 in Rain Light Rain
7:53 AM 68.0 °F 62.1 °F 81% 29.86 in 10.0 mi South 12.7 mph - 0.02 in Rain Light Rain
8:53 AM 70.0 °F 63.0 °F 78% 29.87 in 10.0 mi SSW 9.2 mph - 0.00 in   Clear
9:53 AM 71.1 °F 64.0 °F 78% 29.89 in 10.0 mi SW 15.0 mph 25.3 mph N/A   Scattered Clouds
10:12 AM 69.8 °F 64.4 °F 83% 29.90 in 10.0 mi SW 13.8 mph 20.7 mph N/A   Mostly Cloudy
10:42 AM 68.0 °F 64.4 °F 88% 29.90 in 10.0 mi South 8.1 mph - 0.00 in Rain Light Rain
10:53 AM 68.0 °F 64.0 °F 87% 29.87 in 10.0 mi South 10.4 mph - 0.00 in Rain Light Rain
11:07 AM 66.2 °F 64.4 °F 94% 29.88 in 10.0 mi South 10.4 mph 19.6 mph 0.01 in Rain Light Rain
11:35 AM 66.2 °F 64.4 °F 94% 29.88 in 10.0 mi South 8.1 mph 18.4 mph 0.01 in   Scattered Clouds
11:53 AM 68.0 °F 63.0 °F 84% 29.87 in 10.0 mi South 8.1 mph - 0.01 in   Clear
12:53 PM 72.0 °F 63.0 °F 73% 29.86 in 10.0 mi Variable 5.8 mph - N/A   Partly Cloudy
1:53 PM 77.0 °F 64.0 °F 64% 29.85 in 10.0 mi SW 9.2 mph 21.9 mph N/A   Clear
2:53 PM 77.0 °F 66.0 °F 69% 29.83 in 10.0 mi WSW 12.7 mph - N/A   Clear
3:53 PM 77.0 °F 66.9 °F 71% 29.80 in 10.0 mi SSW 6.9 mph - N/A   Partly Cloudy
4:53 PM 73.9 °F 69.1 °F 85% 29.80 in 10.0 mi SSW 4.6 mph - 0.00 in Rain Light Rain
5:06 PM 73.4 °F 68.0 °F 83% 29.81 in 2.0 mi SSW 5.8 mph - 0.03 in Rain , Thunderstorm Thunderstorms and Rain
5:15 PM 71.6 °F 68.0 °F 88% 29.80 in 5.0 mi SW 4.6 mph - 0.04 in Rain , Thunderstorm Light Thunderstorms and Rain
5:53 PM 71.1 °F 69.1 °F 93% 29.81 in 10.0 mi West 6.9 mph - 0.04 in Thunderstorm Thunderstorm
6:13 PM 66.2 °F 64.4 °F 94% 29.83 in 1.8 mi West 11.5 mph - 0.12 in Rain , Thunderstorm Heavy Thunderstorms and Rain
6:19 PM 66.2 °F 64.4 °F 94% 29.84 in 0.8 mi SW 9.2 mph 18.4 mph 0.30 in Rain , Thunderstorm Heavy Thunderstorms and Rain
6:26 PM 66.2 °F 64.4 °F 94% 29.83 in 1.0 mi SSW 5.8 mph 18.4 mph 0.44 in Rain , Thunderstorm Heavy Thunderstorms and Rain
6:37 PM 66.2 °F 64.4 °F 94% 29.81 in 3.0 mi SE 3.5 mph - 0.54 in Rain , Thunderstorm Light Thunderstorms and Rain
6:53 PM 66.0 °F 64.9 °F 96% 29.81 in 5.0 mi South 4.6 mph - 0.57 in Rain , Thunderstorm Thunderstorms and Rain
7:13 PM 66.2 °F 64.4 °F 94% 29.84 in 5.0 mi South 11.5 mph 16.1 mph 0.09 in Rain , Thunderstorm Thunderstorms and Rain
7:53 PM 66.0 °F 64.9 °F 96% 29.81 in 8.0 mi SE 9.2 mph - 0.21 in Rain , Thunderstorm Thunderstorms and Rain
8:18 PM 66.2 °F 64.4 °F 94% 29.81 in 10.0 mi SSE 10.4 mph - 0.03 in Rain Light Rain
8:53 PM 66.9 °F 64.0 °F 90% 29.77 in 10.0 mi South 15.0 mph 25.3 mph 0.04 in Rain , Thunderstorm Light Thunderstorms and Rain
9:16 PM 66.2 °F 64.4 °F 94% 29.78 in 10.0 mi South 10.4 mph - 0.00 in Rain Light Rain
9:53 PM 66.9 °F 64.0 °F 90% 29.79 in 10.0 mi South 11.5 mph - 0.01 in Rain Light Rain
10:02 PM 66.2 °F 64.4 °F 94% 29.80 in 10.0 mi South 10.4 mph - 0.01 in Rain , Thunderstorm Light Thunderstorms and Rain
10:21 PM 66.2 °F 64.4 °F 94% 29.81 in 10.0 mi South 8.1 mph - 0.01 in Rain Light Rain
10:53 PM 66.0 °F 64.0 °F 93% 29.83 in 10.0 mi Variable 5.8 mph - 0.02 in Rain Light Rain
11:53 PM 66.0 °F 64.0 °F 93% 29.81 in 10.0 mi SSW 6.9 mph - 0.00 in Rain Light Rain